This is the latest recevied weather packets stored in our database for station/object KI6PPU. If no packets are shown the sender has not sent any weather packets the latest 10 day(s).
| Time | Temp. | Humidity | Pressure | Rain* | Wind** | Luminosity | Snow |
|---|---|---|---|---|---|---|---|
| 1777939443 | 10.56° C | 97% | 1017.6 hPa | 2.29 mm | - | 24 W/m² | - |
| 1777939139 | 10.56° C | 97% | 1017.6 hPa | 1.27 mm | - | 26 W/m² | - |
| 1777938836 | 10.56° C | 97% | 1017.6 hPa | 1.27 mm | - | 22 W/m² | - |
| 1777938532 | 11.11° C | 97% | 1017.7 hPa | 1.27 mm | - | 13 W/m² | - |
| 1777938230 | 10.56° C | 97% | 1018.1 hPa | 3.05 mm | - | 16 W/m² | - |
| 1777937926 | 11.11° C | 97% | 1017.8 hPa | 5.33 mm | - | 33 W/m² | - |
| 1777937622 | 11.11° C | 97% | 1018 hPa | 3.56 mm | - | 39 W/m² | - |
| 1777937319 | 11.11° C | 97% | 1017.9 hPa | 3.05 mm | - | 39 W/m² | - |
| 1777937016 | 11.11° C | 97% | 1017.8 hPa | 3.05 mm | - | 23 W/m² | - |
| 1777936713 | 11.11° C | 97% | 1017.7 hPa | 3.56 mm | - | 43 W/m² | - |
| 1777936409 | 11.11° C | 97% | 1017.6 hPa | 3.05 mm | - | 44 W/m² | - |
| 1777936105 | 11.11° C | 97% | 1017.8 hPa | 1.78 mm | - | 28 W/m² | - |
| 1777935804 | 11.11° C | 97% | 1018 hPa | 1.27 mm | - | 16 W/m² | - |
| 1777935502 | 11.11° C | 97% | 1017.9 hPa | 1.78 mm | - | 15 W/m² | - |
| 1777935198 | 11.11° C | 96% | 1018 hPa | 3.56 mm | - | 17 W/m² | - |
| 1777934896 | 11.11° C | 96% | 1017.9 hPa | 4.32 mm | - | 22 W/m² | - |
| 1777934592 | 11.67° C | 96% | 1017.8 hPa | 3.05 mm | - | 29 W/m² | - |
| 1777934289 | 11.67° C | 96% | 1018 hPa | 1.78 mm | - | 37 W/m² | - |
| 1777933984 | 11.67° C | 96% | 1018 hPa | 1.78 mm | - | 44 W/m² | - |
| 1777933681 | 11.67° C | 96% | 1017.9 hPa | 1.27 mm | - | 46 W/m² | - |
| 1777933378 | 11.67° C | 96% | 1017.8 hPa | 1.27 mm | - | 35 W/m² | - |
| 1777933076 | 11.67° C | 96% | 1017.9 hPa | 1.78 mm | - | 31 W/m² | - |
| 1777932773 | 11.67° C | 96% | 1017.8 hPa | 1.78 mm | - | 48 W/m² | - |
| 1777932470 | 11.67° C | 95% | 1018 hPa | 1.78 mm | - | 44 W/m² | - |
| 1777932167 | 11.67° C | 95% | 1018.1 hPa | 3.05 mm | - | 57 W/m² | - |
* Rain latest hour (hover to see other rain measurements)
** Current wind speed in m/s (hover to see current wind gust speed)